Weather History for Erie, CO

Change the Weather History Date:

Friday, July 19, 2013

  Actual Average (KBJC) Record (KBJC)
Temperature  
Mean Temperature 74 °F -  
Max Temperature 83 °F 86 °F 100 °F (1998)
Min Temperature 64 °F 62 °F 49 °F (1988)
Cooling Degree Days 8    
Growing Degree Days 24 (Base 50)    
Moisture  
Dew Point 55 °F    
Average Humidity 54    
Maximum Humidity 87    
Minimum Humidity 31    
Precipitation  
Precipitation 0.00 in - - ()
Sea Level Pressure  
Sea Level Pressure 30.20 in    
Wind  
Wind Speed 6 mph (ENE)    
Max Wind Speed 15 mph    
Max Gust Speed 23 mph    
Visibility 10 miles    
Events Rain , Thunderstorm    
Averages and records for this station are not official NWS values.
T = Trace of Precipitation, MM = Missing Value Source: NWS Daily Summary

Daily Weather History Graph

Daily Weather History Graph

Search for Another Location

Airport:

Trip Planner

Search our weather history database for the weather conditions in past years. The results will help you decide how hot, cold, wet, or windy it might be!

Date:

Astronomy

Jul. 19, 2013 Rise Set
Actual Time 5:47 AM MDT 8:25 PM MDT
Civil Twilight 5:15 AM MDT 8:56 PM MDT
Nautical Twilight 4:36 AM MDT 9:35 PM MDT
Astronomical Twilight 3:52 AM MDT 10:19 PM MDT
Moon 5:30 PM MDT (7/19) 2:30 AM MDT (7/19)
Length of Visible Light 15h 40m
Length of Day
14h 37m
Waxing Gibbous, 87% of the Moon is Illuminated
Jul 19
Waxing Gibbous
Jul 22
Full
Jul 29
Last Quarter
Aug 6
New
Aug 14
First Quarter

Hourly Weather History & Observations

Time (MDT) Temp. Heat Index Dew Point Humidity Pressure Visibility Wind Dir Wind Speed Gust Speed Precip Events Conditions
12:15 AM 69.8 °F - 54.3 °F 58% 30.21 in 10.0 mi NNE 6.9 mph - N/A   Scattered Clouds
12:35 AM 68.7 °F - 55.0 °F 62% 30.21 in 10.0 mi North 5.8 mph - N/A   Scattered Clouds
12:55 AM 69.4 °F - 55.4 °F 61% 30.20 in 10.0 mi North 10.4 mph - N/A   Scattered Clouds
1:15 AM 69.4 °F - 55.4 °F 61% 30.20 in 10.0 mi North 10.4 mph - N/A   Mostly Cloudy
1:35 AM 68.9 °F - 55.4 °F 62% 30.21 in 10.0 mi North 3.5 mph - N/A   Scattered Clouds
1:55 AM 68.5 °F - 55.8 °F 64% 30.23 in 10.0 mi Calm Calm - N/A   Scattered Clouds
2:15 AM 68.0 °F - 56.3 °F 66% 30.22 in 10.0 mi Calm Calm - N/A Rain Light Rain
2:35 AM 67.6 °F - 56.8 °F 68% 30.23 in 10.0 mi NE 4.6 mph - N/A Rain Light Rain
2:55 AM 65.8 °F - 58.5 °F 77% 30.23 in 10.0 mi Calm Calm - N/A   Light Drizzle
3:15 AM 66.2 °F - 59.2 °F 78% 30.23 in 10.0 mi South 4.6 mph - N/A Rain Light Rain
3:35 AM 65.5 °F - 59.9 °F 82% 30.21 in 7.0 mi South 5.8 mph - N/A Rain Rain
3:55 AM 64.0 °F - 59.9 °F 86% 30.21 in 10.0 mi SW 4.6 mph - N/A   Scattered Clouds
4:15 AM 64.4 °F - 59.9 °F 85% 30.21 in 10.0 mi Calm Calm - N/A   Clear
4:35 AM 64.8 °F - 60.8 °F 87% 30.21 in 10.0 mi Calm Calm - N/A   Clear
4:55 AM 64.2 °F - 60.3 °F 87% 30.20 in 10.0 mi SSW 4.6 mph - N/A   Clear
5:15 AM 64.0 °F - 60.1 °F 87% 30.20 in 10.0 mi West 5.8 mph - N/A   Clear
5:35 AM 64.4 °F - 60.4 °F 87% 30.20 in 10.0 mi WSW 4.6 mph - N/A   Clear
5:55 AM 64.4 °F - 59.0 °F 83% 30.20 in 10.0 mi Calm Calm - N/A   Clear
6:15 AM 64.4 °F - 59.7 °F 85% 30.20 in 10.0 mi South 3.5 mph - N/A   Clear
6:35 AM 64.8 °F - 58.6 °F 81% 30.20 in 10.0 mi Calm Calm - N/A   Clear
6:55 AM 65.7 °F - 57.9 °F 76% 30.21 in 10.0 mi WSW 4.6 mph - N/A   Clear
7:15 AM 67.6 °F - 58.8 °F 73% 30.21 in 10.0 mi Calm Calm - N/A   Clear
7:35 AM 69.6 °F - 58.6 °F 68% 30.21 in 10.0 mi WSW 3.5 mph - N/A   Clear
7:55 AM 72.0 °F - 56.7 °F 58% 30.21 in 10.0 mi West 3.5 mph - N/A   Clear
8:15 AM 74.3 °F - 56.7 °F 54% 30.22 in 10.0 mi West 4.6 mph - N/A   Clear
8:35 AM 76.1 °F - 54.1 °F 46% 30.22 in 10.0 mi West 5.8 mph - N/A   Clear
8:55 AM 77.9 °F - 52.0 °F 40% 30.22 in 10.0 mi West 3.5 mph - N/A   Clear
9:15 AM 78.3 °F - 48.6 °F 35% 30.22 in 10.0 mi Calm Calm - N/A   Clear
9:35 AM 80.4 °F - 50.4 °F 35% 30.23 in 10.0 mi Calm Calm - N/A   Scattered Clouds
9:55 AM 80.2 °F - 48.2 °F 32% 30.22 in 10.0 mi Calm Calm - N/A   Mostly Cloudy
10:15 AM 81.9 °F - 48.0 °F 31% 30.23 in 10.0 mi ENE 4.6 mph - N/A   Scattered Clouds
10:35 AM 79.9 °F - 50.5 °F 36% 30.23 in 10.0 mi NE 10.4 mph - N/A   Scattered Clouds
10:55 AM 80.1 °F - 52.9 °F 39% 30.23 in 10.0 mi NE 9.2 mph - N/A   Overcast
11:15 AM 81.7 °F - 50.9 °F 34% 30.23 in 10.0 mi NE 12.7 mph - N/A   Scattered Clouds
11:35 AM 82.2 °F - 52.3 °F 35% 30.24 in 10.0 mi NE 10.4 mph 18.4 mph N/A   Mostly Cloudy
11:55 AM 82.4 °F - 49.6 °F 32% 30.23 in 10.0 mi NNE 11.5 mph - N/A   Scattered Clouds
12:15 PM 83.1 °F - 50.0 °F 32% 30.23 in 10.0 mi ENE 13.8 mph 17.3 mph N/A   Clear
12:35 PM 81.1 °F - 50.9 °F 35% 30.23 in 10.0 mi ENE 13.8 mph 19.6 mph N/A   Clear
12:55 PM 79.9 °F - 51.8 °F 38% 30.23 in 10.0 mi ENE 15.0 mph 23.0 mph N/A   Clear
1:15 PM 80.2 °F - 52.0 °F 37% 30.23 in 10.0 mi ENE 15.0 mph 21.9 mph N/A   Clear
1:35 PM 80.8 °F 80.4 °F 53.4 °F 39% 30.23 in 10.0 mi ENE 11.5 mph 20.7 mph N/A   Clear
1:55 PM 81.1 °F 80.6 °F 53.6 °F 38% 30.22 in 10.0 mi NNE 10.4 mph 20.7 mph N/A   Clear
2:15 PM 81.5 °F 80.9 °F 54.5 °F 39% 30.21 in 10.0 mi NNE 6.9 mph 16.1 mph N/A   Scattered Clouds
2:35 PM 79.5 °F - 55.2 °F 43% 30.21 in 10.0 mi NE 12.7 mph 18.4 mph N/A   Mostly Cloudy
2:55 PM 81.3 °F 80.7 °F 53.8 °F 38% 30.20 in 10.0 mi ENE 9.2 mph - N/A   Mostly Cloudy
3:15 PM 81.9 °F 81.0 °F 53.4 °F 37% 30.19 in 10.0 mi NE 6.9 mph - N/A   Scattered Clouds
3:35 PM 83.3 °F 82.1 °F 53.6 °F 36% 30.18 in 10.0 mi East 8.1 mph - N/A   Scattered Clouds
3:55 PM 80.4 °F 80.2 °F 54.1 °F 40% 30.17 in 10.0 mi East 5.8 mph 10.4 mph N/A   Mostly Cloudy
4:15 PM 82.2 °F 81.5 °F 54.9 °F 39% 30.17 in 10.0 mi ENE 10.4 mph 16.1 mph N/A   Overcast
4:35 PM 83.1 °F 82.2 °F 55.0 °F 38% 30.17 in 10.0 mi East 10.4 mph 17.3 mph N/A   Scattered Clouds
4:55 PM 79.5 °F - 55.4 °F 43% 30.17 in 10.0 mi East 6.9 mph 17.3 mph N/A   Clear
5:15 PM 78.4 °F - 56.7 °F 47% 30.16 in 10.0 mi NE 5.8 mph - N/A   Clear
5:35 PM 80.6 °F 80.4 °F 55.0 °F 41% 30.16 in 10.0 mi East 10.4 mph 17.3 mph N/A   Clear
5:55 PM 80.1 °F 80.1 °F 54.3 °F 41% 30.17 in 10.0 mi East 10.4 mph 16.1 mph N/A   Scattered Clouds
6:15 PM 77.9 °F - 54.5 °F 44% 30.16 in 10.0 mi East 8.1 mph - N/A   Scattered Clouds
6:35 PM 79.2 °F - 54.0 °F 42% 30.15 in 10.0 mi East 6.9 mph - N/A   Clear
6:55 PM 78.3 °F - 54.0 °F 43% 30.16 in 10.0 mi East 8.1 mph - N/A   Clear
7:15 PM 77.0 °F - 53.8 °F 44% 30.16 in 10.0 mi East 5.8 mph - N/A   Clear
7:35 PM 75.6 °F - 54.0 °F 47% 30.17 in 10.0 mi East 6.9 mph - N/A   Clear
7:55 PM 75.2 °F - 53.6 °F 47% 30.17 in 10.0 mi East 5.8 mph - N/A   Mostly Cloudy
8:15 PM 74.3 °F - 54.3 °F 50% 30.17 in 10.0 mi East 5.8 mph - N/A   Scattered Clouds
8:35 PM 73.4 °F - 54.3 °F 51% 30.18 in 10.0 mi East 4.6 mph - N/A   Scattered Clouds
8:55 PM 72.1 °F - 54.5 °F 54% 30.18 in 10.0 mi Calm Calm - N/A   Scattered Clouds
9:15 PM 70.9 °F - 54.5 °F 56% 30.18 in 10.0 mi Calm Calm - N/A   Scattered Clouds
9:35 PM 71.4 °F - 54.5 °F 55% 30.18 in 10.0 mi Calm Calm - N/A Thunderstorm Thunderstorm
9:55 PM 68.9 °F - 54.3 °F 60% 30.16 in 10.0 mi SW 3.5 mph - N/A   Clear
10:15 PM 70.0 °F - 54.5 °F 58% 30.13 in 10.0 mi South 5.8 mph - N/A   Clear
10:35 PM 68.9 °F - 54.9 °F 61% 30.14 in 10.0 mi Calm Calm - N/A   Clear
10:55 PM 66.9 °F - 54.9 °F 65% 30.14 in 10.0 mi Calm Calm - N/A   Clear
11:15 PM 69.1 °F - 55.4 °F 62% 30.13 in 10.0 mi SSE 6.9 mph - N/A   Clear
11:35 PM 69.3 °F - 55.2 °F 61% 30.13 in 10.0 mi SE 3.5 mph - N/A   Clear
11:55 PM 67.6 °F - 55.6 °F 65% 30.12 in 10.0 mi Calm Calm - N/A   Clear